Darstellungsparameter: Aktuell verwendete Einstellungen:
Skalierung der Graphiken ... ?
xyx+y,   Skalierungsfaktor:      Skalierung: Modus: x, Faktor: 1
Darstellungszeitraum ... ?
Vom - - bis: - -   Zeitraum: 23.02.2003 - 24.05.2003
Min/Max/Avg-Anzeige ... ?
Zeige MMA aktuell
Zeige MMA Monat
Zeige MMA alles
Zeige --A aktuell
Zeige --A Monat
Zeige --A alles
Keine MMA-Anzeige
MMA:
Keine MMA-Graphiken
MMA-Basis: 23.02.2003 - 24.05.2003
Quicknavigation für Darstellung... ?
Tage:      1T, 2T, 3T, 5T -1T -2T -3T -5T +1T +2T +3T +5T
Wochen: 1W, 2W, 3W -1W -2W -3W +1W +2W +3W
Monate: 1M, 3M, 6M -1M -3M -6M +1M +3M +6M
Jahre:    1J, 3J, 5J, 10J -1J -3J -5J -10J +1J +3J +5J +10J
Nutze für die Darstellung ... ?
Originaldaten oder ...
Mittelwerte Minima Maxima auf...
Stundenbasis Tagesbasis Wochenbasis
Monatsbasis Jahresbasis      Datenbasis: Mittelwerte auf Tagesbasis
Darstellen als:
Statistik (Auto) Statistik J:M      Darstellung:
Zur Graphik,    zurück zur Übersicht aller Sensoren.
 
Tabellarische Datenbersicht: ?
 
Sensor: Nr:Datum:Temp:Abs-Feuchte:Windchill:Wind:
Aussen-T/F 1 23-02-2003 00:00:00 -0.25 C 3.51 g/m*3 -0.25 C 0 km/h
2 24-02-2003 00:00:00 3.08396 C 3.72 g/m*3 3.08 C 0 km/h
3 25-02-2003 00:00:00 1.22845 C 3.23 g/m*3 1.23 C 0 km/h
4 26-02-2003 00:00:00 2.00653 C 3.38 g/m*3 2.01 C 0 km/h
5 27-02-2003 00:00:00 6.02453 C 4.37 g/m*3 6.02 C 0 km/h
6 28-02-2003 00:00:00 7.01339 C 5.38 g/m*3 7.01 C 0 km/h
7 01-03-2003 00:00:00 7.99123 C 6.65 g/m*3 7.99 C 0 km/h
8 02-03-2003 00:00:00 8.58947 C 7.04 g/m*3 8.59 C 0 km/h
9 03-03-2003 00:00:00 5.41134 C 5.75 g/m*3 5.41 C 0 km/h
10 04-03-2003 00:00:00 6.18844 C 5.28 g/m*3 6.19 C 0 km/h
11 05-03-2003 00:00:00 11.37692 C 6.75 g/m*3 11.38 C 0 km/h
12 06-03-2003 00:00:00 8.17302 C 6 g/m*3 8.17 C 0 km/h
13 07-03-2003 00:00:00 5.52766 C 5.16 g/m*3 5.53 C 0 km/h
14 08-03-2003 00:00:00 7.57368 C 4.78 g/m*3 7.57 C 0 km/h
15 09-03-2003 00:00:00 9.86698 C 5.31 g/m*3 9.87 C 0 km/h
16 10-03-2003 00:00:00 10.51917 C 6.01 g/m*3 10.52 C 0 km/h
17 11-03-2003 00:00:00 12.31167 C 6.94 g/m*3 12.31 C 0 km/h
18 12-03-2003 00:00:00 9.19725 C 5.93 g/m*3 9.2 C 0 km/h
19 13-03-2003 00:00:00 7.42917 C 4.31 g/m*3 7.43 C 0 km/h
20 14-03-2003 00:00:00 4.74417 C 3.48 g/m*3 4.74 C 0 km/h
21 15-03-2003 00:00:00 5.11261 C 3.79 g/m*3 5.11 C 0 km/h
22 16-03-2003 00:00:00 5.46583 C 4.01 g/m*3 5.47 C 0 km/h
23 17-03-2003 00:00:00 6.59389 C 4.25 g/m*3 6.59 C 0 km/h
24 18-03-2003 00:00:00 4.7831 C 4.36 g/m*3 4.78 C 0 km/h
25 19-03-2003 00:00:00 6.72437 C 4.61 g/m*3 6.72 C 0 km/h
Sensor: Nr:Datum:Temp:Abs-Feuchte:Windchill:Wind:
Aussen-T/F 26 20-03-2003 00:00:00 5.83083 C 4.68 g/m*3 5.83 C 0 km/h
27 21-03-2003 00:00:00 5.31271 C 4.09 g/m*3 5.31 C 0 km/h
28 22-03-2003 00:00:00 6.51 C 3.09 g/m*3 6.51 C 0 km/h
29 23-03-2003 00:00:00 7.7916 C 3.06 g/m*3 7.79 C 0 km/h
30 24-03-2003 00:00:00 9.90917 C 4.16 g/m*3 9.91 C 0 km/h
31 25-03-2003 00:00:00 12.45126 C 6.38 g/m*3 12.45 C 0 km/h
32 26-03-2003 00:00:00 12.51833 C 7.65 g/m*3 12.52 C 0 km/h
33 27-03-2003 00:00:00 12.4042 C 7.24 g/m*3 12.4 C 0 km/h
34 28-03-2003 00:00:00 13.62333 C 6.91 g/m*3 13.62 C 0 km/h
35 29-03-2003 00:00:00 15.55652 C 8.2 g/m*3 15.56 C 0 km/h
36 30-03-2003 00:00:00 13.94188 C 8.06 g/m*3 13.94 C 0 km/h
37 31-03-2003 00:00:00 10.48833 C 5.2 g/m*3 10.49 C 0 km/h
38 01-04-2003 00:00:00 9.86224 C 5.26 g/m*3 9.86 C 0 km/h
39 02-04-2003 00:00:00 5.81958 C 5.87 g/m*3 5.82 C 0 km/h
40 03-04-2003 00:00:00 5.28292 C 4.77 g/m*3 5.28 C 0 km/h
41 04-04-2003 00:00:00 6.50335 C 4.41 g/m*3 6.5 C 0 km/h
42 05-04-2003 00:00:00 8.93776 C 5.11 g/m*3 8.94 C 0 km/h
43 06-04-2003 00:00:00 8.6063 C 3.55 g/m*3 8.61 C 0 km/h
44 25-04-2003 00:00:00 26.39362 C 6.64 g/m*3 26.39 C 0 km/h
45 26-04-2003 00:00:00 15.08169 C 9.61 g/m*3 15.08 C 0 km/h
46 27-04-2003 00:00:00 12.72168 C 8.24 g/m*3 12.72 C 0 km/h
47 28-04-2003 00:00:00 17.06276 C 8.73 g/m*3 17.06 C 0 km/h
48 29-04-2003 00:00:00 17.9 C 8.79 g/m*3 17.9 C 0 km/h
49 30-04-2003 00:00:00 14.06319 C 10.01 g/m*3 14.06 C 0 km/h
50 01-05-2003 00:00:00 13.28944 C 7.35 g/m*3 13.29 C 0 km/h
Sensor: Nr:Datum:Temp:Abs-Feuchte:Windchill:Wind:
Aussen-T/F 51 02-05-2003 00:00:00 14.91042 C 7.56 g/m*3 14.91 C 0 km/h
52 03-05-2003 00:00:00 14.75944 C 5.98 g/m*3 14.76 C 0 km/h
53 04-05-2003 00:00:00 17.16901 C 7.25 g/m*3 17.17 C 0 km/h
54 05-05-2003 00:00:00 19.43681 C 8.95 g/m*3 19.44 C 0 km/h
55 06-05-2003 00:00:00 15.45874 C 9.46 g/m*3 15.46 C 0 km/h
56 07-05-2003 00:00:00 17.27569 C 8.9 g/m*3 17.28 C 0 km/h
57 08-05-2003 00:00:00 18.80278 C 9.79 g/m*3 18.8 C 0 km/h
58 09-05-2003 00:00:00 15.69375 C 10.2 g/m*3 15.69 C 0 km/h
59 10-05-2003 00:00:00 16.18112 C 8.23 g/m*3 16.18 C 0 km/h
60 11-05-2003 00:00:00 15.48322 C 6.96 g/m*3 15.48 C 0 km/h
61 12-05-2003 00:00:00 16.44028 C 7.63 g/m*3 16.44 C 0 km/h
62 13-05-2003 00:00:00 11.88042 C 6.89 g/m*3 11.88 C 0 km/h
63 14-05-2003 00:00:00 9.76224 C 6.27 g/m*3 9.76 C 0 km/h
64 15-05-2003 00:00:00 12.75944 C 6.15 g/m*3 12.76 C 0 km/h
65 16-05-2003 00:00:00 13.02917 C 6.2 g/m*3 13.03 C 0 km/h
66 17-05-2003 00:00:00 14.35594 C 7.59 g/m*3 14.36 C 0 km/h
67 18-05-2003 00:00:00 16.15714 C 9.6 g/m*3 16.16 C 0 km/h
68 19-05-2003 00:00:00 13.69172 C 10.42 g/m*3 13.69 C 0 km/h
69 20-05-2003 00:00:00 12.97431 C 7.17 g/m*3 12.97 C 0 km/h
70 21-05-2003 00:00:00 11.90559 C 8.02 g/m*3 11.91 C 0 km/h
71 22-05-2003 00:00:00 13.89792 C 10.1 g/m*3 13.9 C 0 km/h
72 23-05-2003 00:00:00 18.97762 C 9.14 g/m*3 18.98 C 0 km/h

Maximal/Minimal-Werte vom 23.02.2003 - 24.05.2003

Sensor Min Max Avg
Temp
(Aussen-T/F)
-5.5 °C
25-02-2003  07:21:09
31.4 °C
08-05-2003  16:53:01
10.06 °C
Abs-Feuchte
(Aussen-T/F)
3.06 g/m*3
23-03-2003  00:00:00
10.42 g/m*3
19-05-2003  00:00:00
6.29 g/m*3
Windchill
(Aussen-T/F)
-0.25 C
23-02-2003  00:00:00
26.39 C
25-04-2003  00:00:00
10.71 C

Die Daten stammen von einer Davis Vantage Pro 2 Wetter-Station und werden unter Linux mit der Software wview2wettercgi und aufbereitet. Alle Angaben erfolgen ohne Gewähr für ihre Vollständigkeit oder Richtigkeit.
Kontakt: Rainer Krienke krienke@uni-koblenz.de . Meine Webseiten an der Uni Koblenz oder privat.
Version: $Revision: 0.78 $